Helicity
61 62 66 72 72 64 94 132 243 34 36 253 406 518 363 243 192 379 390 429 371 334 371 403 359 245 201 216 161 198 136 143 198 69 90 44 103 114 212 224 195 213 112 101
58 58 58 64 73 77 146 174 176 90 147 341 360 431 289 219 318 340 374 415 414 353 334 389 292 264 220 173 200 193 144 219 226 125 112 108 138 180 187 206 189 178 164 142
53 52 56 57 49 52 145 190 228 132 212 241 250 306 235 265 217 340 338 332 429 428 326 279 274 204 206 199 176 224 213 221 239 167 117 144 181 212 195 177 212 227 163 148
51 50 55 56 47 45 153 213 270 213 244 237 195 104 218 254 261 267 210 192 297 261 290 221 194 235 252 258 191 162 181 169 203 156 157 145 163 182 214 287 246 162 121 106
49 49 49 47 41 46 149 243 236 149 87 81 50 142 63 185 168 440 414 426 215 189 160 169 142 268 267 215 227 196 222 172 241 193 189 128 104 133 128 231 201 167 241 170
47 51 50 43 48 84 148 189 129 122 18 29 14 111 -150 137 300 361 352 285 310 215 96 217 224 200 195 169 173 219 273 293 311 221 198 162 168 105 176 101 162 80 150 131
51 39 36 42 51 62 129 157 154 145 38 29 -134 8 70 133 118 257 326 172 230 232 165 145 180 132 220 263 241 238 346 347 259 215 255 172 109 78 86 63 84 94 156 167
52 48 39 37 39 50 72 168 111 99 -14 -124 28 -65 120 38 162 241 196 303 193 312 255 332 319 280 206 225 215 117 184 291 313 275 254 186 121 85 71 110 51 126 167 196
52 47 45 32 23 30 43 57 147 95 -22 -231 -43 -18 -44 122 159 160 137 188 355 407 313 498 392 352 542 410 253 93 206 243 300 285 197 99 100 84 85 168 64 96 133 189
55 44 41 23 17 23 31 18 119 74 -125 -97 -111 9 -16 148 99 162 168 284 337 275 300 205 222 295 425 408 369 448 383 349 219 223 126 116 96 130 189 174 47 123 179 203
47 43 30 26 4 3 26 15 165 128 -92 -65 -107 76 -11 123 145 199 175 345 324 267 201 197 383 184 233 366 343 391 444 366 283 270 224 77 74 172 160 158 150 111 219 187
31 31 27 25 6 14 42 45 104 126 11 -74 1 90 57 65 236 106 320 477 311 215 327 310 389 321 438 454 341 289 322 280 310 208 195 68 89 164 148 134 155 113 144 128
18 20 28 24 13 30 56 33 64 43 -71 -64 -24 99 144 123 164 196 397 301 350 425 289 378 391 296 344 416 420 412 264 270 200 226 163 174 107 159 199 193 193 163 155 163
20 19 26 18 14 44 64 41 64 33 -16 -24 -92 103 46 132 208 238 80 175 303 297 476 352 415 293 285 297 303 303 301 258 203 249 160 163 167 171 187 223 216 205 171 163
30 23 21 8 18 68 51 41 66 92 -6 8 17 122 113 152 55 134 119 81 231 301 202 362 417 488 403 372 317 160 219 198 281 190 176 180 158 182 225 243 235 215 228 217
41 28 33 12 37 78 21 -27 31 97 89 15 25 167 98 138 151 110 181 164 239 290 220 196 292 497 419 366 268 226 193 212 261 195 146 173 189 200 227 256 235 219 236 234
40 33 41 21 38 51 34 42 65 120 115 54 71 152 195 213 114 111 121 46 210 229 265 220 272 316 390 307 198 252 298 152 204 163 279 288 225 246 243 264 272 315 304 275
38 43 21 3 11 37 11 11 -22 17 50 93 63 182 195 210 127 112 82 49 118 268 438 401 365 326 287 196 226 369 316 361 284 206 212 186 231 272 320 302 317 326 300 290
48 40 18 21 12 -3 1 29 -10 -45 49 172 177 179 239 228 326 274 177 116 143 133 228 195 267 320 220 208 206 279 359 342 263 203 223 260 275 305 305 310 301 287 242 213
45 54 37 13 5 45 40 23 37 12 38 75 167 296 221 263 367 293 226 121 97 121 217 266 205 200 238 227 79 124 146 155 246 251 255 281 303 292 282 249 224 253 210 165
73 54 49 33 21 24 32 43 56 42 71 123 190 305 469 476 381 348 280 152 130 154 161 111 97 92 15 25 17 31 89 112 128 184 216 233 290 328 325 282 238 172 121 113
53 37 29 21 22 59 59 82 86 56 96 119 277 263 367 311 412 319 295 250 159 147 217 181 90 8 -23 -50 8 27 38 99 151 206 225 241 275 276 290 256 169 127 122 99
87 46 40 9 46 91 101 82 149 98 68 192 247 312 257 272 257 298 196 217 197 181 273 217 123 119 20 12 104 101 142 201 241 248 253 231 213 210 214 185 148 152 145 123
58 61 60 47 84 91 67 117 145 118 68 137 264 371 303 300 254 185 293 258 258 232 192 74 88 -46 -10 45 44 127 201 231 282 282 221 207 201 191 170 149 105 116 100 96
62 68 64 50 56 63 85 112 101 148 31 204 326 321 201 320 204 197 147 114 99 37 40 62 -7 -50 -11 54 85 112 185 248 268 262 247 217 205 191 138 103 112 114 107 100
62 36 69 73 23 73 98 80 90 115 121 213 330 260 219 258 168 180 151 108 49 18 15 1 -73 -61 8 81 137 152 169 214 233 218 210 168 110 87 94 106 112 113 108 94
37 -26 44 84 51 102 67 56 110 97 168 217 191 185 186 162 138 129 129 53 41 3 -17 -19 11 56 69 141 182 180 212 236 214 185 114 92 102 116 117 109 109 98 83 86
Wind_Speed
69 69 68 64 55 53 58 71 97 61 46 81 100 120 111 101 100 84 87 77 77 76 63 66 65 70 60 51 49 48 36 49 54 42 46 49 50 39 39 39 39 38 42 47
66 63 60 59 57 52 56 81 93 80 66 108 123 113 120 105 109 102 92 86 76 70 69 78 72 68 56 51 48 44 40 47 57 52 48 45 45 41 38 43 42 44 42 44
59 56 55 55 53 50 54 73 95 85 79 98 112 126 118 120 115 111 103 88 83 81 84 79 73 68 55 52 46 39 37 46 46 50 44 42 41 42 43 39 40 44 47 39
54 52 50 49 47 46 50 64 80 77 95 99 110 124 116 123 108 109 105 112 106 97 96 92 93 73 62 57 55 47 46 54 48 50 44 43 47 47 44 44 43 44 39 36
49 47 48 49 48 44 60 71 71 75 98 100 107 117 130 119 115 100 101 109 110 107 115 102 90 75 70 69 59 56 50 60 53 56 49 50 57 53 43 43 38 35 25 20
47 48 51 53 52 47 57 57 67 77 88 93 94 108 138 110 110 112 118 108 97 98 122 92 80 70 73 74 68 58 52 49 51 59 49 55 64 46 44 43 46 32 30 38
53 56 56 57 55 52 57 58 59 67 91 88 107 116 138 120 114 96 104 105 104 112 74 80 83 87 75 71 74 57 57 46 46 58 43 64 52 39 40 43 30 26 29 17
55 56 57 60 62 64 68 59 70 71 95 102 101 109 131 129 130 125 112 105 114 80 75 76 77 78 78 80 67 66 51 45 53 59 64 64 50 38 33 36 46 38 32 26
56 58 62 65 64 68 75 75 62 67 90 110 102 110 105 127 125 124 130 108 102 78 79 80 83 77 69 58 69 53 40 45 50 50 67 73 42 32 25 25 35 28 19 15
58 62 64 68 66 66 75 77 65 74 91 101 103 103 115 107 121 118 100 102 106 100 99 95 75 77 58 66 70 67 50 47 54 48 56 58 35 41 29 32 36 26 12 12
61 65 67 70 69 72 74 76 57 76 93 100 101 101 113 98 104 104 109 92 88 80 89 84 69 76 69 63 61 59 58 49 54 49 59 66 30 28 29 41 29 11 4 4
63 67 68 69 69 72 72 72 61 73 90 96 85 81 91 95 71 104 69 107 104 78 75 70 68 70 71 68 71 56 66 52 45 40 39 38 37 33 26 11 5 3 2 3
67 67 69 70 66 69 66 67 63 68 81 98 99 86 59 66 83 74 83 76 62 80 70 72 77 76 62 69 64 53 56 47 46 41 51 41 32 26 15 13 11 3 2 6
71 69 69 69 66 67 64 62 62 66 67 71 72 60 68 57 55 65 78 58 57 54 67 75 70 75 60 66 53 51 51 44 46 51 40 33 38 25 13 9 5 1 5 12
72 71 69 67 66 64 65 68 61 65 65 62 70 53 58 48 60 52 55 64 61 74 76 75 77 67 53 49 51 57 53 47 51 60 32 28 30 20 15 11 7 6 7 17
71 70 68 64 61 65 56 61 58 59 56 64 60 59 53 49 56 52 46 50 60 66 68 77 68 60 56 58 63 54 55 42 39 43 21 22 19 15 11 10 7 10 15 21
68 67 65 57 62 57 63 56 41 40 44 61 65 61 51 48 52 49 47 45 45 56 65 58 59 71 59 59 71 58 49 41 37 19 18 19 21 18 12 10 8 11 13 17
63 63 57 57 58 59 71 72 75 64 55 57 61 54 54 48 55 51 49 49 49 44 53 55 56 51 61 75 71 51 43 33 26 26 24 21 19 15 11 7 8 13 18 18
57 54 53 52 50 59 58 56 61 50 57 50 54 65 69 46 50 45 40 45 47 41 48 51 48 54 65 60 62 49 39 38 26 20 19 20 21 18 14 13 15 18 21 22
50 41 50 50 48 50 52 50 51 55 54 57 64 59 61 47 49 49 50 47 47 46 42 36 50 66 60 54 43 34 25 19 24 22 21 22 19 15 13 13 12 13 12 18
46 51 53 48 46 46 51 53 55 51 53 51 57 58 53 40 53 54 43 49 47 47 39 36 42 54 60 36 27 26 28 29 25 24 22 20 18 16 11 8 8 8 14 19
47 43 43 46 48 52 53 51 46 48 56 48 56 46 36 31 28 33 33 48 42 47 43 42 46 45 39 35 30 30 31 29 26 20 18 15 11 10 7 3 4 10 18 18
39 47 49 46 51 57 58 58 55 48 43 55 49 47 41 31 27 28 34 47 53 35 48 58 54 39 30 17 18 17 16 14 14 16 10 9 11 9 5 5 12 15 15 19
47 46 53 51 54 57 58 60 54 49 43 46 49 41 39 35 33 24 30 30 32 46 50 61 46 34 25 17 20 23 21 17 18 11 11 11 9 5 3 7 8 10 16 24
48 49 53 62 52 50 51 53 51 52 49 51 44 33 32 36 37 34 29 39 47 54 65 47 34 36 39 29 27 26 25 20 18 10 10 10 9 4 1 4 9 15 22 27
51 47 49 51 52 52 50 51 52 47 52 47 42 40 35 38 36 43 45 39 45 44 41 39 42 36 34 26 19 10 12 16 12 14 16 13 8 3 1 8 15 21 26 32
56 57 53 55 49 50 43 45 47 45 46 54 42 48 53 35 42 45 41 47 38 36 35 45 46 34 25 18 8 8 16 18 18 15 13 7 2 3 5 10 18 24 29 34
Wind_Direction
279 280 281 283 285 287 287 281 272 282 278 260 254 251 247 247 247 257 259 264 259 261 262 266 268 271 274 288 280 275 274 283 279 270 280 288 280 254 242 265 281 293 299 304
278 279 281 282 284 284 285 278 275 278 272 261 252 257 250 247 245 245 252 252 254 257 262 264 264 270 277 281 277 271 277 278 275 285 278 281 288 272 260 268 283 268 277 298
277 277 280 283 284 281 278 279 276 275 264 261 259 251 252 250 239 244 242 250 255 255 256 258 264 267 272 271 274 272 274 273 268 269 279 274 278 279 280 269 270 277 271 281
275 277 278 281 281 279 274 274 274 274 272 262 257 250 255 245 240 234 238 244 248 244 249 252 255 262 269 268 264 268 270 271 271 275 276 276 269 273 279 276 286 276 273 274
275 274 277 281 279 277 270 271 275 275 271 271 271 247 243 243 234 229 233 235 237 242 245 248 252 255 260 262 262 259 263 269 268 268 272 274 271 264 277 278 282 283 288 257
274 274 278 281 276 275 276 276 277 274 269 268 264 254 234 247 232 233 233 231 234 239 241 248 253 258 261 261 257 253 252 255 259 265 269 271 268 262 265 278 274 280 268 277
274 274 276 279 277 274 273 272 278 269 265 264 256 253 233 237 236 228 230 229 235 241 255 254 255 257 260 255 255 252 246 244 256 264 268 265 279 275 268 269 256 260 289 280
274 275 276 277 274 274 269 271 261 262 262 255 254 245 236 236 235 236 237 236 238 239 243 242 247 249 249 245 248 245 236 239 257 260 260 275 280 279 257 257 265 262 264 272
275 275 274 273 271 271 263 260 258 266 257 244 248 240 241 233 233 235 236 238 234 234 237 235 236 235 232 238 236 243 245 248 248 263 259 262 275 274 276 270 265 271 274 239
275 273 273 270 273 274 264 259 257 256 248 248 245 249 232 235 233 232 232 228 230 228 231 235 231 236 239 236 234 239 245 244 242 256 265 273 281 273 258 252 285 275 237 192
273 270 271 270 272 270 264 259 258 256 248 254 249 258 233 233 228 229 228 225 228 218 223 229 233 237 236 243 242 235 240 237 246 255 263 268 274 267 236 265 285 302 167 208
272 269 270 270 269 270 263 258 261 257 256 250 261 263 244 233 233 229 237 223 225 230 228 234 234 242 236 237 241 242 241 238 243 250 261 280 262 260 267 261 223 224 155 295
268 268 268 269 269 267 263 263 258 254 257 255 247 242 252 247 232 235 231 230 227 227 234 233 236 237 237 234 244 241 244 245 254 258 258 257 262 263 251 252 262 234 282 301
264 265 265 267 270 267 267 262 258 256 256 252 242 255 253 244 233 232 234 238 225 219 227 231 235 236 245 241 246 246 245 237 246 254 262 251 259 247 232 240 243 137 311 302
260 261 261 264 270 266 267 262 260 256 252 249 251 254 249 239 234 234 242 238 226 226 230 234 234 241 241 250 246 247 242 244 242 255 254 242 252 235 228 218 228 270 296 303
257 257 260 264 269 263 264 254 262 256 257 248 247 245 242 233 224 235 238 242 234 228 231 237 236 244 245 242 245 252 247 247 245 255 232 242 229 218 220 227 232 279 291 300
254 254 259 262 262 255 245 246 254 252 261 240 243 234 235 231 223 230 237 248 249 241 237 244 241 240 246 250 247 246 252 242 235 223 214 228 226 232 216 220 258 288 310 326
251 253 261 258 259 259 247 249 245 244 255 247 242 233 229 238 227 230 234 239 243 245 239 242 241 245 247 251 245 244 237 243 234 218 231 232 230 225 239 236 267 298 308 319
249 253 256 258 262 246 248 258 248 255 242 251 243 225 224 236 233 241 243 236 237 246 243 246 238 243 246 251 238 240 239 243 236 226 229 216 216 231 236 255 280 293 303 315
245 254 245 251 254 263 260 249 245 245 249 250 240 231 227 231 232 237 237 241 237 240 248 247 249 246 250 250 243 241 233 226 214 202 214 219 224 218 234 263 288 297 313 327
241 240 244 254 263 252 241 241 237 239 246 247 235 225 221 242 229 232 250 237 240 244 248 242 249 249 239 239 230 235 243 245 243 248 244 240 238 238 247 277 302 319 329 336
240 250 260 257 249 238 237 236 237 243 238 243 225 218 222 241 247 248 259 243 246 245 232 242 250 243 241 227 236 240 240 244 247 245 252 255 233 218 221 231 295 324 333 331
244 241 238 241 235 232 229 225 226 234 240 228 214 213 229 239 252 253 258 249 249 248 250 246 244 243 254 254 239 232 238 228 237 251 243 180 160 174 205 276 306 314 327 331
235 236 235 233 230 229 228 225 229 235 239 215 204 219 237 237 245 257 253 257 250 250 249 247 251 256 270 269 241 234 234 237 244 226 164 171 177 184 265 293 316 337 330 329
235 236 236 230 237 235 232 234 237 233 218 204 208 226 237 233 242 253 255 248 252 253 249 263 270 251 255 256 252 250 241 229 239 210 167 159 154 159 343 350 349 340 332 332
232 244 240 237 236 235 237 234 230 229 208 208 220 227 237 240 244 244 250 248 258 266 260 263 255 257 262 260 257 239 188 180 172 154 145 143 145 150 30 345 337 335 333 331
234 236 235 235 241 237 242 235 228 224 208 216 226 227 232 237 245 248 251 253 265 273 275 261 259 258 257 253 234 161 146 145 147 147 145 146 119 67 14 347 341 335 331 328